Weather History for KIWD - January, 2014

Change the Weather History Date:

Monday, January 6, 2014

  Actual Average Record
Temperature  
Mean Temperature -20 °F -  
Max Temperature -14 °F 20 °F 44 °F (2012)
Min Temperature -25 °F 8 °F -25 °F (2014)
Degree Days  
Heating Degree Days 84    
Moisture  
Dew Point -24 °F    
Average Humidity 73    
Maximum Humidity 100    
Minimum Humidity 58    
Precipitation  
Precipitation 0.00 in - - ()
Sea Level Pressure  
Sea Level Pressure 29.94 in    
Wind  
Wind Speed 17 mph (WSW)    
Max Wind Speed 24 mph    
Max Gust Speed 31 mph    
Visibility 3 miles    
Events      
Averages and records for this station are not official NWS values.
T = Trace of Precipitation, MM = Missing Value Source: NWS Daily Summary

Daily Weather History Graph

Daily Weather History Graph

Search for Another Location

Airport or City:

Trip Planner

Search our weather history database for the weather conditions in past years. The results will help you decide how hot, cold, wet, or windy it might be!

Date:

Astronomy

Jan. 06, 2014 Rise Set
Actual Time 7:43 AM CST 4:29 PM CST
Civil Twilight 7:09 AM CST 5:03 PM CST
Nautical Twilight 6:31 AM CST 5:41 PM CST
Astronomical Twilight 5:54 AM CST 6:18 PM CST
Moon 10:36 AM CST (1/6) 11:27 PM CST (1/6)
Length of Visible Light 9h 54m
Length of Day
8h 45m
Waxing Crescent, 35% of the Moon is Illuminated
Jan 6
Waxing Crescent
Jan 7
First Quarter
Jan 15
Full
Jan 23
Last Quarter
Jan 30
New

Hourly Weather History & Observations

Time (CST) Temp. Windchill Dew Point Humidity Pressure Visibility Wind Dir Wind Speed Gust Speed Precip Events Conditions
12:15 AM -14.8 °F -39.8 °F -20.2 °F 77% 30.00 in 0.8 mi West 17.3 mph - N/A   Overcast
12:35 AM -14.8 °F -40.5 °F -22.0 °F 70% 30.00 in 1.0 mi West 18.4 mph - N/A   Overcast
12:55 AM -14.8 °F -39.8 °F -20.2 °F 77% 30.00 in 1.0 mi West 17.3 mph - N/A   Overcast
1:15 AM -16.6 °F -42.9 °F -23.8 °F 70% 30.00 in 0.8 mi West 18.4 mph - N/A   Overcast
1:35 AM -16.6 °F -41.4 °F -23.8 °F 70% 30.00 in 0.8 mi West 16.1 mph - N/A   Overcast
1:55 AM -16.6 °F -41.4 °F -22.0 °F 76% 30.00 in 0.8 mi West 16.1 mph - N/A   Overcast
2:15 AM -16.6 °F -43.5 °F -23.8 °F 70% 30.00 in 0.8 mi West 19.6 mph - N/A   Overcast
2:35 AM -18.4 °F -42.9 °F -25.6 °F 70% 30.00 in 0.8 mi West 15.0 mph - N/A   Overcast
2:55 AM -18.4 °F -44.5 °F -25.6 °F 70% 30.00 in 0.8 mi West 17.3 mph - N/A   Overcast
3:15 AM -20.2 °F -45.2 °F -25.6 °F 76% 29.99 in 1.0 mi WSW 15.0 mph - N/A   Overcast
3:35 AM -20.2 °F -46.8 °F -29.2 °F 63% 29.99 in 1.0 mi West 17.3 mph 21.9 mph N/A   Overcast
3:55 AM -22.0 °F -49.1 °F -29.2 °F 69% 29.99 in 1.0 mi WSW 17.3 mph - N/A   Overcast
4:15 AM -23.8 °F -50.7 °F - N/A% 29.98 in 1.2 mi WSW 16.1 mph 23.0 mph N/A   Overcast
4:35 AM -23.8 °F -51.5 °F - N/A% 29.98 in 1.2 mi WSW 17.3 mph - N/A   Overcast
4:55 AM -23.8 °F -51.5 °F - N/A% 29.97 in 1.5 mi WSW 17.3 mph - N/A   Overcast
5:15 AM -23.8 °F -49.8 °F - N/A% 29.98 in 2.0 mi WSW 15.0 mph - N/A   Overcast
5:35 AM -25.6 °F -53.0 °F - N/A% 29.97 in 2.5 mi West 16.1 mph - N/A   Overcast
5:55 AM -25.6 °F -53.0 °F - N/A% 29.97 in 5.0 mi WSW 16.1 mph - N/A   Overcast
6:15 AM -25.6 °F -53.0 °F - N/A% 29.97 in 5.0 mi WSW 16.1 mph - N/A   Overcast
6:35 AM -25.6 °F -53.8 °F - N/A% 29.97 in 5.0 mi WSW 17.3 mph 21.9 mph N/A   Overcast
6:55 AM -25.6 °F -53.0 °F - N/A% 29.97 in 7.0 mi WSW 16.1 mph - N/A   Overcast
7:15 AM -25.6 °F -52.1 °F - N/A% 29.96 in 3.0 mi WSW 15.0 mph - N/A   Overcast
7:35 AM -25.6 °F -53.0 °F - N/A% 29.96 in 1.5 mi WSW 16.1 mph - N/A   Overcast
7:55 AM -25.6 °F -52.1 °F -27.4 °F 91% 29.97 in 1.2 mi WSW 15.0 mph - N/A   Overcast
8:15 AM -23.8 °F -49.8 °F -25.6 °F 91% 29.97 in 1.0 mi WSW 15.0 mph - N/A   Overcast
8:35 AM -23.8 °F -51.5 °F - N/A% 29.96 in 1.5 mi WSW 17.3 mph - N/A   Overcast
8:55 AM -23.8 °F -48.9 °F - N/A% 29.96 in 2.0 mi WSW 13.8 mph - N/A   Overcast
9:15 AM -22.0 °F -49.9 °F -25.6 °F 83% 29.97 in 1.2 mi WSW 18.4 mph 24.2 mph N/A   Overcast
9:35 AM -22.0 °F -49.1 °F -23.8 °F 91% 29.97 in 1.2 mi West 17.3 mph 23.0 mph N/A   Overcast
9:55 AM -22.0 °F -49.9 °F - N/A% 29.97 in 1.2 mi WSW 18.4 mph 25.3 mph N/A   Overcast
10:15 AM -22.0 °F -49.9 °F - N/A% 29.97 in 1.2 mi West 18.4 mph 24.2 mph N/A   Overcast
10:35 AM -22.0 °F -47.5 °F -25.6 °F 83% 29.97 in 1.2 mi West 15.0 mph - N/A   Overcast
10:55 AM -22.0 °F -46.6 °F -25.6 °F 83% 29.96 in 1.0 mi WSW 13.8 mph - N/A   Overcast
11:15 AM -22.0 °F -49.1 °F - N/A% 29.95 in 2.0 mi WSW 17.3 mph - N/A   Overcast
11:35 AM -20.2 °F -46.8 °F -23.8 °F 83% 29.94 in 2.5 mi West 17.3 mph - N/A   Overcast
11:55 AM -18.4 °F -44.5 °F -18.4 °F 100% 29.94 in 1.5 mi West 17.3 mph 25.3 mph N/A   Overcast
12:15 PM -18.4 °F -45.9 °F - N/A% 29.93 in 1.5 mi West 19.6 mph - N/A   Overcast
12:35 PM -18.4 °F -44.5 °F - N/A% 29.93 in 1.8 mi West 17.3 mph 25.3 mph N/A   Overcast
12:55 PM -18.4 °F -45.2 °F -23.8 °F 76% 29.92 in 1.2 mi West 18.4 mph - N/A   Overcast
1:15 PM -18.4 °F -44.5 °F -23.8 °F 76% 29.92 in 2.0 mi WSW 17.3 mph 23.0 mph N/A   Overcast
1:35 PM -18.4 °F -42.9 °F -29.2 °F 58% 29.91 in 3.0 mi West 15.0 mph 21.9 mph N/A   Mostly Cloudy
1:55 PM -18.4 °F -42.9 °F -25.6 °F 70% 29.92 in 3.0 mi West 15.0 mph - N/A   Mostly Cloudy
2:15 PM -18.4 °F -43.7 °F -23.8 °F 76% 29.91 in 4.0 mi West 16.1 mph 24.2 mph N/A   Scattered Clouds
2:35 PM -18.4 °F -44.5 °F -23.8 °F 76% 29.92 in 3.0 mi WSW 17.3 mph 27.6 mph N/A   Partly Cloudy
2:55 PM -16.6 °F -43.5 °F -27.4 °F 58% 29.92 in 2.5 mi West 19.6 mph 24.2 mph N/A   Clear
3:15 PM -16.6 °F -42.9 °F -23.8 °F 70% 29.93 in 5.0 mi West 18.4 mph 24.2 mph N/A   Clear
3:35 PM -16.6 °F -39.8 °F -23.8 °F 70% 29.92 in 7.0 mi West 13.8 mph 19.6 mph N/A   Clear
3:55 PM -16.6 °F -40.6 °F -23.8 °F 70% 29.93 in 9.0 mi West 15.0 mph - N/A   Clear
4:15 PM -16.6 °F -39.8 °F -23.8 °F 70% 29.93 in 7.0 mi West 13.8 mph - N/A   Mostly Cloudy
4:35 PM -16.6 °F -39.8 °F -25.6 °F 64% 29.92 in 7.0 mi West 13.8 mph - N/A   Scattered Clouds
4:55 PM -16.6 °F -42.1 °F -25.6 °F 64% 29.92 in 10.0 mi West 17.3 mph - N/A   Clear
5:15 PM -16.6 °F -42.9 °F -23.8 °F 70% 29.91 in 8.0 mi West 18.4 mph - N/A   Clear
5:35 PM -16.6 °F -43.5 °F -23.8 °F 70% 29.91 in 5.0 mi West 19.6 mph 25.3 mph N/A   Clear
5:55 PM -16.6 °F -42.1 °F -25.6 °F 64% 29.91 in 10.0 mi WSW 17.3 mph - N/A   Clear
6:15 PM -16.6 °F -42.9 °F -23.8 °F 70% 29.91 in 4.0 mi West 18.4 mph - N/A   Partly Cloudy
6:35 PM -16.6 °F -42.1 °F -20.2 °F 84% 29.92 in 5.0 mi West 17.3 mph - N/A   Partly Cloudy
6:55 PM -16.6 °F -42.1 °F -23.8 °F 70% 29.92 in 5.0 mi West 17.3 mph 24.2 mph N/A   Scattered Clouds
7:15 PM -16.6 °F -44.1 °F -23.8 °F 70% 29.91 in 3.0 mi West 20.7 mph 25.3 mph N/A   Overcast
7:35 PM -16.6 °F -45.9 °F -20.2 °F 84% 29.90 in 2.5 mi West 24.2 mph 28.8 mph N/A   Overcast
7:55 PM -16.6 °F -45.3 °F -23.8 °F 70% 29.89 in 1.8 mi West 23.0 mph 28.8 mph N/A   Overcast
8:15 PM -16.6 °F -44.1 °F -23.8 °F 70% 29.90 in 2.0 mi West 20.7 mph 31.1 mph N/A   Overcast
8:35 PM -16.6 °F -45.9 °F -22.0 °F 76% 29.90 in 2.0 mi West 24.2 mph 29.9 mph N/A   Overcast
8:55 PM -16.6 °F -43.5 °F -23.8 °F 70% 29.90 in 5.0 mi West 19.6 mph - N/A   Mostly Cloudy
9:15 PM -16.6 °F -43.5 °F -25.6 °F 64% 29.90 in 3.0 mi West 19.6 mph 26.5 mph N/A   Partly Cloudy
9:35 PM -16.6 °F -43.5 °F -25.6 °F 64% 29.90 in 4.0 mi West 19.6 mph 25.3 mph N/A   Clear
9:55 PM -16.6 °F -42.9 °F -20.2 °F 84% 29.90 in 10.0 mi WSW 18.4 mph - N/A   Partly Cloudy
10:15 PM -16.6 °F -44.8 °F -23.8 °F 70% 29.89 in 6.0 mi West 21.9 mph - N/A   Mostly Cloudy
10:35 PM -16.6 °F -44.8 °F -25.6 °F 64% 29.89 in 1.8 mi West 21.9 mph 27.6 mph N/A   Overcast
10:55 PM -16.6 °F -42.9 °F -25.6 °F 64% 29.90 in 4.0 mi West 18.4 mph - N/A   Overcast
11:15 PM -16.6 °F -44.1 °F -23.8 °F 70% 29.89 in 3.0 mi West 20.7 mph 25.3 mph N/A   Overcast
11:35 PM -16.6 °F -43.5 °F -23.8 °F 70% 29.88 in 2.0 mi West 19.6 mph - N/A   Overcast
11:55 PM -18.4 °F -42.9 °F -23.8 °F 76% 29.88 in 2.0 mi WSW 15.0 mph 24.2 mph N/A   Overcast